Location: Carrières
(48.9495°N, 2.0407°E)
Time: 07:09:07
(UTC+00:00)

BREEZE M DEB (TANK) - Pass Details

Date: 28 January 2023
Orbit: 341 x 13534 km, 49.6° (Epoch: 19 March)

Event Time Altitude Azimuth Distance (km) Brightness Sun altitude
Rises 18:48:38 0° 291° (WNW) 4,448 8.6 -20.7°
Reaches altitude 10° 18:52:56 10° 282° (WNW) 2,412 7.1 -21.4°
Maximum altitude 18:56:55 29° 221° (SW) 888 4.3 -22.0°
Enters shadow 18:57:39 25° 192° (SSW) 893 4.0 -22.2°
